Satellite-Ground Cal/Val Region Overpasses Predictions

Prediction of Satellite NPP Overpassing Cal/Val Region: PacNW

Region Location: (Latitude: 10.00, Longitude: 139.50) to (Latitude: 22.70, Longitude: 165.60).

Table of predicted overpasses for the next 14.0 days since TLE Epoch: 7/23/2022
Interval Starting Time Starting Location Ending Time Ending Location
1 07/23/2022 03:17:49 ( 10.04, 150.34) 07/23/2022 03:21:24 ( 22.66, 147.34)
2 07/23/2022 15:49:43 ( 22.65, 147.57) 07/23/2022 15:53:18 ( 10.03, 144.57)
3 07/24/2022 02:58:48 ( 10.01, 155.10) 07/24/2022 03:02:24 ( 22.69, 152.08)
4 07/24/2022 15:30:41 ( 22.67, 152.33) 07/24/2022 15:34:16 ( 10.05, 149.33)
5 07/25/2022 02:39:47 ( 10.04, 159.85) 07/25/2022 02:43:22 ( 22.66, 156.84)
6 07/25/2022 15:11:40 ( 22.70, 157.09) 07/25/2022 15:15:16 ( 10.02, 154.07)
7 07/26/2022 02:20:46 ( 10.02, 164.61) 07/26/2022 02:24:22 ( 22.70, 161.59)
8 07/26/2022 14:52:39 ( 22.67, 161.84) 07/26/2022 14:56:14 ( 10.04, 158.83)
9 07/27/2022 03:43:15 ( 10.05, 143.98) 07/27/2022 03:46:50 ( 22.68, 140.97)
10 07/27/2022 14:34:48 ( 18.58, 165.59) 07/27/2022 14:37:14 ( 10.01, 163.58)
11 07/27/2022 16:15:08 ( 22.69, 141.22) 07/27/2022 16:17:08 ( 15.65, 139.51)
12 07/28/2022 03:24:14 ( 10.03, 148.74) 07/28/2022 03:27:49 ( 22.65, 145.73)
13 07/28/2022 15:56:08 ( 22.65, 145.97) 07/28/2022 15:59:43 ( 10.03, 142.97)
14 07/29/2022 03:05:12 ( 10.01, 153.50) 07/29/2022 03:08:48 ( 22.69, 150.48)
15 07/29/2022 15:37:06 ( 22.67, 150.73) 07/29/2022 15:40:41 ( 10.05, 147.73)
16 07/30/2022 02:46:12 ( 10.04, 158.24) 07/30/2022 02:49:47 ( 22.67, 155.24)
17 07/30/2022 15:18:05 ( 22.70, 155.49) 07/30/2022 15:21:41 ( 10.02, 152.47)
18 07/31/2022 02:27:10 ( 10.02, 163.00) 07/31/2022 02:30:45 ( 22.64, 160.00)
19 07/31/2022 14:59:04 ( 22.66, 160.24) 07/31/2022 15:02:39 ( 10.04, 157.23)
20 08/01/2022 02:10:47 ( 19.28, 165.59) 08/01/2022 02:11:45 ( 22.68, 164.75)
21 08/01/2022 03:49:39 ( 10.00, 142.39) 08/01/2022 03:53:06 ( 22.16, 139.50)
22 08/01/2022 14:40:03 ( 22.68, 165.00) 08/01/2022 14:43:39 ( 10.00, 161.98)
23 08/01/2022 16:21:33 ( 22.68, 139.62) 08/01/2022 16:21:41 ( 22.21, 139.50)
24 08/02/2022 03:30:38 ( 10.04, 147.13) 08/02/2022 03:34:13 ( 22.66, 144.13)
25 08/02/2022 16:02:31 ( 22.70, 144.38) 08/02/2022 16:06:07 ( 10.02, 141.36)
26 08/03/2022 03:11:37 ( 10.02, 151.89) 08/03/2022 03:15:12 ( 22.65, 148.89)
27 08/03/2022 15:43:31 ( 22.66, 149.13) 08/03/2022 15:47:06 ( 10.04, 146.12)
28 08/04/2022 02:52:35 ( 10.00, 156.65) 08/04/2022 02:56:11 ( 22.68, 153.64)
29 08/04/2022 15:24:29 ( 22.68, 153.89) 08/04/2022 15:28:05 ( 10.00, 150.87)
30 08/05/2022 02:33:35 ( 10.04, 161.40) 08/05/2022 02:37:10 ( 22.67, 158.40)
